Theta_e
293 293 294 294 293 293 293 292 292 292 293 294 293 294 294 296 290 289 297 300 301 299 302 305 306 309 308 307 310 313 315 317 317 321 322 321 321 325 323 325 327 328 330 331 330 330 331 333 333 333 333 333 334 334 333 334 334 334 334 333 330 329 328 326 325 324 323 322 321 320 319 319 319 319 318 318 318 316 316 315 315 313 313 312 311 310 310
292 293 294 295 293 293 293 293 293 294 294 294 294 294 295 295 296 297 298 302 302 303 304 307 312 316 314 312 312 314 312 316 314 314 319 321 322 322 323 328 330 330 331 331 331 331 331 332 332 332 332 331 332 332 333 333 333 333 333 331 330 328 327 327 326 324 322 320 320 319 319 318 318 318 318 318 316 314 315 314 313 313 312 312 311 310 309
290 293 295 295 294 293 292 293 294 294 294 294 295 295 296 298 297 298 299 299 300 308 309 308 313 315 315 312 310 311 313 312 315 315 315 316 316 319 321 325 328 330 331 331 331 330 331 332 332 332 331 332 332 332 333 332 332 332 332 331 330 328 326 326 324 323 321 319 319 318 318 318 318 318 318 317 314 314 313 313 313 314 311 310 314 312 310
288 292 293 294 294 294 292 292 293 293 293 292 295 293 298 296 295 297 298 296 296 302 309 309 309 311 313 312 311 313 312 312 315 316 315 315 317 319 320 324 328 329 330 330 330 330 332 332 332 332 331 332 331 331 332 331 332 332 331 330 329 326 326 325 323 322 320 319 318 317 317 317 317 318 317 316 312 313 312 311 312 311 310 311 310 310 309
287 292 293 293 294 292 288 289 293 294 295 295 297 296 298 299 300 295 291 294 300 303 307 306 305 309 308 308 309 309 312 313 312 313 314 316 317 320 320 323 325 328 328 328 330 331 332 332 332 332 332 331 330 331 330 331 331 330 329 328 327 326 325 324 323 321 320 319 318 317 317 317 317 317 316 315 312 311 310 310 310 309 310 309 308 308 308
287 292 294 293 289 282 284 296 299 297 295 295 294 295 297 299 299 297 300 300 304 304 305 305 305 305 306 308 311 312 314 315 315 314 315 316 317 320 320 323 328 327 327 329 331 332 332 333 333 333 333 331 331 331 331 330 330 329 328 327 326 324 323 323 322 321 320 319 317 316 317 317 317 317 315 312 312 311 310 309 308 309 308 308 308 308 307
286 291 290 286 281 284 296 300 300 299 299 298 298 298 299 299 300 301 300 301 302 304 305 306 308 309 308 309 308 309 310 319 318 319 317 320 319 321 325 324 325 326 327 329 332 332 332 331 332 332 331 331 331 330 329 329 329 327 326 325 324 323 321 321 321 320 320 319 316 316 316 316 315 314 313 311 311 310 309 308 307 307 306 305 305 307 309
290 288 287 279 282 294 299 301 304 304 300 300 299 297 299 302 301 301 300 301 303 305 305 305 307 307 308 308 307 309 312 316 320 317 315 315 318 320 321 325 325 326 329 331 332 332 332 332 331 331 331 330 329 328 329 328 328 327 326 325 323 322 320 320 320 319 319 316 315 314 314 314 313 312 311 311 310 310 309 309 308 307 307 307 306 307 308
285 286 285 286 294 293 297 297 300 300 296 297 295 290 295 301 302 302 301 302 302 304 305 306 307 309 307 304 306 322 314 315 315 317 316 318 317 322 326 328 329 333 334 333 333 332 332 332 331 330 330 328 327 327 326 327 327 327 327 326 324 322 321 320 320 320 319 317 316 314 314 313 312 311 310 309 309 309 308 307 307 307 307 307 307 307 307
290 286 284 285 285 283 289 302 306 308 306 309 309 301 295 302 303 304 303 302 302 304 304 305 307 311 303 300 302 312 315 314 313 314 316 318 318 319 327 329 330 331 334 334 332 331 331 331 331 330 328 327 326 325 324 325 325 325 325 325 324 322 322 321 321 321 319 318 317 316 315 313 312 311 310 310 309 307 306 304 304 304 303 304 305 305 305
289 287 284 283 281 285 294 300 305 307 308 307 307 298 291 301 303 304 303 303 304 304 303 304 307 304 298 298 303 315 324 322 313 312 313 314 318 325 328 325 328 333 333 332 331 331 331 329 330 329 328 326 325 324 324 324 325 324 324 325 324 323 322 322 322 322 321 319 319 317 314 312 312 310 309 308 307 306 305 304 302 302 302 302 302 303 305
289 287 285 283 287 287 296 302 304 306 308 308 302 287 288 303 305 305 304 303 304 305 306 307 305 301 297 299 311 327 329 321 327 322 317 318 321 326 330 330 332 333 332 330 330 329 329 329 331 329 328 326 324 324 324 324 324 323 324 324 325 324 322 321 321 320 319 315 314 313 312 312 311 310 308 307 306 305 304 303 302 302 301 301 302 304 307
288 287 287 289 289 295 302 303 305 307 308 306 290 285 295 310 311 312 312 306 305 307 306 306 302 305 306 313 322 330 325 325 321 322 323 320 320 327 329 328 323 331 331 331 329 329 329 329 329 329 327 326 324 323 324 323 324 324 326 326 324 323 322 320 320 318 316 315 314 313 313 311 310 308 307 306 305 305 304 303 302 302 303 304 306 307 307
288 289 286 287 290 297 303 305 306 309 302 289 288 303 312 313 311 313 312 311 314 308 307 307 306 313 323 323 327 324 327 329 330 322 322 322 324 327 326 325 328 330 330 330 329 329 328 328 328 328 327 324 323 324 323 323 324 326 327 326 325 323 322 320 318 315 314 314 313 312 311 309 308 307 307 307 306 306 304 303 302 304 305 304 304 306 307
291 289 287 286 283 295 305 307 304 307 295 299 308 312 313 312 312 312 312 314 315 317 308 310 313 321 325 326 324 323 327 328 327 326 325 326 326 327 328 329 329 328 328 328 328 328 328 328 329 328 327 324 323 323 323 324 326 326 323 322 321 320 318 317 315 314 314 313 312 311 309 308 307 306 306 306 305 304 304 304 303 303 303 304 304 303 302
287 287 285 286 294 301 309 306 295 304 307 314 316 314 310 312 314 312 311 315 319 319 315 309 319 323 324 325 323 323 325 327 329 329 329 328 328 328 328 329 329 328 327 327 327 328 328 328 328 328 327 324 323 323 324 327 327 325 322 321 319 317 315 314 312 312 311 311 311 310 308 308 307 306 305 305 304 304 304 303 301 301 301 301 302 301 301
293 289 292 300 303 307 310 311 309 312 313 314 314 313 312 313 314 318 316 315 321 323 317 317 319 318 321 322 325 324 326 327 327 327 328 328 328 327 327 327 328 328 327 326 327 327 327 327 327 328 328 326 323 322 325 326 325 324 323 321 318 315 313 312 311 310 309 309 309 308 308 307 305 305 304 304 303 304 303 302 301 299 299 299 299 300 302
302 303 303 306 307 309 309 311 313 312 313 313 313 313 313 315 317 319 318 318 320 322 322 319 317 316 318 321 322 322 324 325 326 330 328 327 329 328 328 328 328 328 328 327 326 326 326 327 327 326 327 327 324 325 326 324 324 322 320 318 316 315 314 312 310 309 308 307 307 307 307 306 305 305 304 303 303 302 302 301 299 297 296 296 299 301 301
296 291 303 303 306 309 309 310 312 313 314 312 312 313 311 312 314 317 320 323 323 323 321 318 316 318 320 321 323 324 323 325 326 324 322 322 328 327 326 327 325 327 327 326 326 325 325 326 327 327 327 327 327 327 325 325 324 324 322 319 316 316 314 314 310 308 307 306 305 306 306 306 306 305 305 304 303 301 302 301 300 298 298 299 300 300 300
295 294 303 307 309 310 312 311 310 310 312 313 315 313 313 312 315 317 321 323 322 322 321 322 319 319 322 323 322 322 322 322 321 321 320 319 321 327 328 327 327 328 327 326 325 325 324 326 327 327 327 326 326 326 325 325 324 321 316 314 313 313 311 309 308 307 306 298 302 304 305 305 304 304 304 304 302 302 302 301 300 299 299 298 298 298 298
300 302 305 306 308 308 309 311 311 314 312 312 312 311 312 315 313 315 314 318 320 321 321 323 322 321 320 321 322 321 323 322 320 319 321 321 323 328 326 327 326 327 326 326 326 325 325 326 326 326 325 325 326 325 325 324 324 319 315 312 313 311 310 309 307 306 305 304 304 304 304 304 305 305 304 303 303 303 304 304 303 301 299 298 299 299 299
294 295 299 306 295 295 303 309 310 312 313 313 312 313 314 314 314 314 314 313 316 317 321 322 321 320 319 322 322 320 322 322 321 321 321 323 325 327 327 327 325 324 323 327 325 324 325 326 325 325 325 324 325 325 325 324 323 317 314 314 314 312 310 309 307 305 304 305 305 304 304 304 304 305 299 299 301 304 304 299 296 295 295 299 299 299 299
294 302 306 307 306 304 307 309 312 313 315 316 313 312 312 314 315 315 314 313 313 313 317 320 322 320 321 322 324 323 324 324 322 321 321 323 323 325 327 325 324 323 325 324 324 322 323 324 324 324 325 325 325 324 324 324 322 316 315 314 313 314 312 308 305 306 305 305 305 305 305 305 305 304 304 303 295 297 299 296 294 293 293 293 294 294 298
306 307 308 309 308 306 307 311 313 313 316 315 314 314 315 313 313 314 315 315 313 314 316 315 320 322 322 323 323 323 323 324 326 323 324 325 326 326 326 326 324 325 325 324 323 321 323 323 323 324 324 324 321 321 321 323 322 316 316 315 314 311 310 308 305 305 306 305 305 305 305 306 306 304 303 302 299 293 293 293 292 292 292 291 292 292 292
304 309 310 311 311 311 313 313 313 314 316 314 312 313 313 313 313 314 314 314 314 315 314 316 317 319 322 323 324 324 323 323 324 323 323 322 324 326 326 326 326 325 325 324 324 324 323 323 323 323 324 324 323 323 322 321 321 317 317 316 314 312 310 307 306 305 305 305 305 306 305 305 305 304 303 301 299 297 295 291 291 291 291 291 292 291 292
311 311 311 312 313 312 314 312 312 312 315 315 315 314 314 313 313 313 314 314 315 317 315 315 317 319 320 321 322 323 322 322 320 321 323 323 324 324 325 325 326 326 325 325 324 323 322 322 322 324 323 323 323 324 323 320 319 318 317 317 318 312 309 307 307 306 306 305 305 305 305 305 305 304 303 302 300 298 295 294 294 293 293 291 291 291 291
311 312 311 310 309 311 313 310 309 314 314 315 314 313 313 314 314 314 315 317 317 318 318 319 319 320 321 321 319 321 322 322 323 322 323 322 322 323 325 326 326 326 324 324 324 321 318 321 321 323 323 323 324 323 321 319 318 317 317 317 316 300 295 300 308 307 306 306 305 305 305 305 304 303 303 302 300 298 297 295 294 294 295 298 294 291 294
310 311 311 306 306 309 311 313 313 313 314 313 313 312 313 314 314 313 312 313 315 316 319 320 320 320 319 319 320 320 322 321 320 321 321 321 322 323 325 326 326 326 324 322 322 321 321 322 322 322 322 322 322 323 322 321 319 317 315 314 311 306 306 306 308 308 307 306 306 305 305 305 304 302 301 300 299 299 299 298 296 296 295 297 296 292 292
309 309 312 312 312 313 314 314 313 312 312 313 313 314 314 313 313 312 311 313 314 314 315 315 317 319 319 320 320 319 319 320 319 319 320 322 322 323 324 325 326 324 323 322 321 320 320 321 322 320 318 320 320 319 320 320 319 318 315 312 309 308 308 308 308 308 308 307 307 306 300 301 304 303 303 301 300 301 301 300 298 297 298 298 298 297 293
309 310 311 311 313 313 311 310 310 310 310 311 312 312 313 315 310 310 310 311 313 313 314 315 315 317 319 319 319 319 318 319 320 320 320 321 322 322 322 323 323 322 322 321 320 320 320 319 319 318 318 319 319 319 318 318 316 315 313 312 310 309 308 308 308 308 308 308 306 297 301 304 305 305 304 304 303 301 300 299 299 298 299 299 295 296 295
309 311 311 312 313 312 311 310 310 311 312 311 310 310 310 310 310 311 310 313 313 313 314 314 314 316 318 318 319 321 322 322 321 321 320 321 321 322 322 321 319 316 318 319 320 321 320 319 319 319 318 317 317 316 316 315 314 313 312 311 310 300 296 295 299 307 307 305 303 304 304 304 304 303 300 302 301 301 302 301 299 300 299 301 300 298 297
308 309 309 308 309 308 308 308 307 308 309 311 309 307 307 306 306 306 307 307 310 312 315 315 315 316 317 318 321 320 319 320 320 320 320 321 321 321 322 321 320 314 320 321 320 319 320 319 316 317 316 316 316 316 316 316 314 312 311 304 307 304 297 295 302 303 303 304 302 304 301 304 304 304 302 301 302 302 303 303 302 300 301 301 300 301 300
305 305 304 305 306 308 306 308 308 307 308 307 309 309 308 308 308 308 308 310 310 312 314 314 314 316 317 318 319 319 318 319 319 320 318 319 320 320 321 322 321 320 320 320 320 320 321 318 315 317 317 316 316 316 316 316 314 313 312 309 307 305 297 297 300 304 303 302 303 304 304 303 304 304 303 302 303 301 304 303 302 301 301 302 303 303 301
305 303 307 307 307 305 305 305 308 306 306 308 307 307 308 308 309 308 307 308 309 309 309 310 314 315 316 316 315 316 316 315 315 315 317 318 319 320 320 320 322 321 321 320 319 319 320 320 317 316 317 317 316 317 316 316 315 314 313 310 307 304 303 304 301 304 303 301 303 303 303 304 305 305 303 303 304 305 303 304 300 301 302 303 304 303 298
310 310 309 309 309 309 309 309 308 307 307 307 307 307 309 310 309 309 309 309 309 310 312 313 313 315 315 316 315 315 316 316 316 317 317 318 318 319 320 319 320 319 319 319 319 319 320 321 319 317 317 316 317 318 318 318 318 316 313 310 306 305 305 303 304 304 303 303 304 305 304 304 305 301 303 306 307 304 303 301 302 301 302 302 303 303 297
310 309 309 308 309 309 309 307 309 310 309 308 308 308 308 309 310 310 308 309 311 311 312 313 314 314 314 313 313 314 314 315 315 316 317 317 318 320 319 317 317 317 317 317 320 322 321 320 304 304 318 317 316 316 317 317 318 316 311 308 305 304 304 303 305 304 303 305 304 303 304 301 302 302 303 305 306 305 305 304 303 303 303 303 301 301 298
310 310 310 310 310 310 310 309 309 309 309 309 312 310 311 309 309 310 310 310 310 311 312 312 312 311 311 311 311 312 313 314 315 315 316 317 318 318 317 316 316 315 315 314 317 321 318 313 299 296 312 316 316 317 317 302 318 316 310 308 307 305 304 304 306 305 304 304 304 304 300 299 304 305 301 305 305 304 304 304 301 303 302 301 300 297 294
309 310 310 310 310 310 309 310 311 311 309 308 309 309 310 310 309 310 309 310 310 310 310 310 310 311 311 311 310 310 310 311 312 313 313 314 315 315 314 313 314 314 313 316 318 317 314 306 299 308 318 318 316 317 311 293 296 315 310 308 307 306 304 304 304 304 304 305 302 305 304 304 304 305 305 305 306 305 303 303 302 301 301 301 301 298 295
310 311 311 311 310 309 309 310 309 309 309 308 308 308 309 310 310 310 309 309 309 309 310 310 310 310 309 309 309 309 309 309 310 311 311 312 312 313 312 313 314 316 316 318 319 314 311 311 317 317 316 318 320 316 302 293 298 313 310 309 309 307 305 305 305 304 304 306 306 305 305 305 304 305 305 305 306 303 301 302 302 301 301 302 301 300 298
306 307 308 308 307 309 308 307 308 308 308 308 308 308 309 309 309 309 309 309 309 309 309 308 307 306 306 307 307 308 309 310 310 310 310 310 310 311 312 314 315 315 313 306 315 314 306 298 310 316 317 315 313 312 309 302 302 311 319 310 310 308 306 306 306 305 305 305 304 299 304 304 304 305 304 305 304 303 303 302 301 302 302 302 300 299 298
307 308 308 307 307 307 307 307 307 308 308 308 308 309 310 309 309 308 308 308 309 309 308 308 306 305 305 306 307 307 308 309 309 309 310 309 309 309 308 309 311 311 311 312 312 309 306 307 312 314 315 313 313 307 311 303 312 313 312 311 309 308 307 307 305 305 305 305 303 305 305 306 304 304 303 304 304 304 304 305 302 303 303 301 300 299 298
306 307 307 306 306 306 307 307 307 307 308 309 308 310 310 310 308 308 309 309 308 308 307 307 301 306 306 306 306 306 306 307 308 309 308 308 307 307 306 307 311 308 299 301 302 305 309 311 311 305 313 314 310 299 299 307 311 312 312 311 310 308 308 306 307 307 308 306 307 306 305 306 305 305 305 305 304 303 302 302 302 301 302 301 299 300 300
306 307 306 306 306 306 306 306 306 307 307 308 309 310 309 310 310 309 308 307 307 306 306 307 307 305 307 305 306 305 306 307 307 307 308 309 310 311 309 308 309 308 293 306 310 311 311 313 313 309 301 312 305 292 295 309 311 312 312 311 306 306 307 307 307 309 308 306 304 306 307 306 306 305 303 303 303 302 301 301 300 301 300 301 300 300 300
307 305 307 306 306 305 306 305 304 304 305 305 306 308 309 310 310 308 307 306 305 305 305 305 306 306 304 305 306 305 305 306 307 308 307 308 309 310 310 308 307 302 294 305 309 310 311 309 305 295 288 290 290 293 305 311 313 312 313 308 305 307 306 306 305 304 305 304 303 304 304 304 304 304 304 302 301 302 303 301 302 302 301 301 302 301 301
307 306 305 304 307 305 304 304 304 303 303 305 305 306 307 308 308 308 307 305 304 304 303 305 306 305 305 306 305 305 306 307 307 307 306 305 305 305 308 302 307 305 298 293 306 305 303 301 295 290 291 290 293 296 310 312 311 309 308 309 307 306 306 306 305 305 304 305 305 304 304 304 305 304 304 302 298 301 301 301 302 302 301 301 301 301 301
306 305 305 297 305 308 305 306 306 306 305 303 303 303 305 307 306 305 305 306 305 306 306 306 305 305 306 306 306 307 308 308 309 309 309 308 306 306 305 299 304 297 295 295 304 303 298 286 288 289 289 289 292 305 308 306 306 309 308 308 307 305 306 306 306 306 306 305 305 305 305 305 305 304 304 303 302 301 300 297 298 302 302 302 302 301 301
300 302 304 305 305 308 307 306 306 305 305 304 303 302 303 305 306 306 307 307 306 306 306 306 306 306 307 307 306 305 305 306 307 308 308 307 305 301 297 295 294 293 298 303 303 304 301 297 290 288 289 289 292 307 309 309 308 309 308 308 306 307 307 308 308 307 307 308 306 303 300 302 304 305 303 302 303 302 301 300 301 302 302 301 300 298 297
296 296 297 298 299 301 305 306 306 306 305 303 304 305 304 305 306 307 307 307 305 305 305 306 306 306 306 307 307 308 308 307 304 305 308 309 309 308 307 306 303 292 292 291 291 289 285 286 286 288 288 288 295 304 307 309 308 308 309 308 309 308 309 308 308 307 306 306 305 305 305 304 305 305 304 304 304 303 302 300 300 299 300 300 299 299 299
294 294 295 295 295 296 298 299 300 299 299 301 301 302 304 305 304 302 302 304 305 305 304 304 304 306 305 305 307 307 307 307 307 304 307 309 308 306 305 298 290 290 299 305 303 300 289 287 287 285 283 287 302 306 308 310 307 307 307 308 308 308 308 308 307 307 306 306 305 304 305 305 307 306 305 302 302 302 299 300 301 301 299 298 298 298 298
291 292 292 293 293 293 293 295 295 296 297 298 299 299 303 303 300 299 299 301 302 301 306 305 305 305 305 305 306 307 307 307 306 307 307 307 309 308 306 306 306 298 297 306 303 299 288 285 287 288 294 303 305 306 310 310 308 307 307 306 306 306 302 297 296 298 303 303 305 303 303 304 307 304 304 303 302 300 300 301 300 297 294 295 296 298 297
288 288 290 290 291 291 292 292 293 293 294 294 296 297 299 300 298 297 296 296 300 298 300 304 302 301 302 302 302 304 305 306 305 301 305 306 305 303 303 304 305 302 305 303 302 302 301 302 303 299 299 303 306 308 306 307 307 306 303 306 308 306 304 302 305 306 306 303 303 303 303 303 305 306 305 304 301 301 301 301 300 300 298 299 298 299 298
287 288 290 290 290 290 290 290 291 292 292 292 293 294 295 297 296 295 294 290 295 296 296 299 298 298 299 298 299 300 300 301 301 301 300 304 304 307 304 300 308 303 306 307 306 306 306 303 297 296 297 304 306 308 299 299 306 307 308 304 303 307 303 305 305 308 306 307 305 304 301 303 304 306 304 304 303 301 301 300 301 300 298 300 302 300 300
Wind_Speed
12 9 10 10 16 17 17 19 20 22 23 22 19 9 11 8 7 8 8 8 2 2 7 6 8 6 8 11 9 8 8 9 8 8 10 10 12 14 17 16 18 19 18 17 16 16 15 16 17 17 16 14 14 13 13 12 12 13 13 13 14 13 13 14 13 13 12 10 11 12 13 12 11 11 11 9 8 9 8 8 7 9 8 8 8 8 8
11 10 10 13 17 16 17 20 21 21 20 17 15 14 17 17 12 14 12 5 4 8 5 5 1 6 4 4 4 5 7 3 9 10 13 12 9 11 11 12 14 15 16 15 15 15 15 17 18 17 16 16 14 14 13 14 12 12 13 14 14 14 13 13 13 13 12 11 11 13 13 13 11 11 10 9 9 9 9 9 7 8 8 8 8 8 8
10 13 13 13 16 17 18 20 20 20 19 19 19 17 15 15 16 14 12 7 4 1 4 4 5 10 10 4 7 8 7 8 4 7 11 11 14 15 13 13 14 13 13 14 14 16 16 18 19 17 15 13 14 14 15 15 13 13 13 14 13 14 13 13 13 13 12 12 12 12 13 12 11 11 10 9 9 9 9 9 7 6 7 7 4 8 10
5 9 12 13 12 15 17 18 19 19 19 18 17 13 7 10 12 13 10 4 4 5 4 5 7 7 5 2 2 3 4 8 6 4 9 12 11 11 13 13 15 15 12 14 15 17 16 17 18 16 15 15 15 15 15 14 13 13 13 13 14 14 13 13 14 14 12 13 13 12 13 13 12 11 10 9 10 9 8 7 6 7 7 5 6 8 9
2 7 19 12 10 12 14 15 16 19 18 16 14 15 14 12 11 10 4 6 7 8 7 7 11 3 4 5 13 7 7 7 11 10 9 9 12 10 11 13 14 14 14 15 15 14 14 14 16 15 14 14 14 13 12 13 12 13 12 12 14 13 12 13 13 13 13 14 13 14 13 13 12 11 11 9 11 9 9 7 7 8 7 7 7 8 9
4 6 2 8 5 9 11 9 15 18 18 19 19 15 15 16 14 8 9 8 6 7 4 8 9 13 11 10 9 7 5 4 10 11 8 9 9 12 16 15 11 14 12 10 13 16 15 14 13 13 12 12 11 12 13 14 14 12 13 12 13 13 12 13 13 13 14 14 14 14 14 13 12 11 11 10 9 9 9 9 9 8 7 7 7 8 9
2 8 7 2 7 9 5 5 11 17 19 20 18 16 16 18 20 16 14 11 9 8 8 7 3 5 6 6 6 11 8 4 4 2 4 4 8 7 7 12 15 13 13 11 14 15 15 16 14 12 13 12 13 12 13 14 13 13 12 12 12 12 13 13 13 13 14 13 14 13 13 14 11 11 11 11 10 9 9 9 9 8 8 8 7 7 6
2 4 1 2 4 8 14 11 11 13 18 17 15 15 14 12 12 11 13 14 9 7 9 11 10 6 8 7 10 12 7 6 6 7 7 8 5 10 12 11 13 15 13 16 18 16 14 14 13 13 11 11 13 13 13 14 13 13 13 13 13 13 14 14 15 15 15 13 13 13 13 12 12 11 11 11 11 9 9 8 8 8 7 7 8 8 6
3 1 1 6 11 13 14 11 7 9 11 12 11 7 13 15 13 14 13 14 14 13 14 12 5 4 7 10 10 1 2 6 10 10 10 6 8 7 12 11 8 5 13 16 17 15 14 14 13 11 12 13 14 14 13 14 13 12 13 14 14 15 14 16 15 15 15 15 14 15 14 12 12 12 11 11 9 9 9 8 8 8 8 7 7 7 8
2 2 4 5 5 7 1 6 10 13 7 7 4 6 6 11 14 14 16 17 16 14 13 11 7 5 5 9 10 3 2 7 11 11 9 8 10 8 14 14 12 13 13 14 15 17 16 13 13 12 13 14 14 13 13 12 13 12 12 12 13 14 14 16 17 17 17 17 16 16 14 14 13 12 10 8 9 9 10 9 8 7 7 7 7 7 8
3 2 4 2 4 2 4 12 11 13 13 8 3 2 11 7 12 12 13 10 8 12 12 11 8 5 8 9 7 3 3 7 13 11 9 8 6 9 13 16 16 17 17 17 16 16 18 16 14 15 16 17 15 13 13 13 12 13 13 11 13 15 14 14 14 13 13 14 14 14 14 13 12 13 12 11 10 9 8 9 9 8 8 8 8 7 8
3 4 4 4 2 4 4 10 13 14 14 7 6 9 7 3 5 10 13 12 12 12 11 9 9 10 8 11 1 3 3 7 3 5 2 2 4 8 11 13 15 17 18 17 18 17 16 15 13 16 17 16 16 14 14 13 13 14 13 12 12 11 12 12 12 12 12 12 11 13 14 13 11 11 10 11 11 10 10 8 8 7 8 8 9 8 7
4 4 5 3 3 4 4 5 12 14 13 6 6 9 1 8 9 9 6 10 13 10 10 9 8 9 11 3 7 3 4 3 3 4 3 4 7 2 8 12 16 15 17 17 16 16 13 14 13 14 14 14 14 13 13 13 14 14 14 13 13 12 11 12 11 11 11 12 14 12 12 12 11 10 10 11 11 9 10 8 8 7 8 5 6 5 5
4 1 6 3 5 7 7 6 12 15 9 6 6 2 5 8 7 7 6 9 8 10 12 8 9 1 4 6 3 4 3 2 3 9 10 10 11 13 10 15 16 14 13 13 16 15 15 15 15 15 14 14 13 13 13 13 12 13 13 13 12 14 14 13 12 12 12 12 12 10 11 11 11 10 9 10 10 9 7 7 8 7 6 6 7 6 6
3 3 4 2 3 1 3 9 14 4 1 2 4 5 4 4 7 5 6 6 9 13 8 11 7 8 6 3 4 3 4 6 7 7 10 9 9 10 17 15 15 15 14 14 14 14 14 15 15 15 15 15 14 13 13 13 11 10 11 11 11 11 10 11 11 12 12 13 12 10 11 12 12 11 10 10 9 8 8 8 8 9 7 7 8 7 5
3 2 2 2 1 2 2 3 2 4 7 8 5 6 3 4 3 4 1 5 7 12 8 12 9 9 7 3 3 2 5 6 7 6 8 11 11 14 18 18 16 15 15 15 14 15 14 14 13 14 15 14 13 13 14 13 13 12 14 13 13 12 11 10 9 8 9 11 10 11 12 12 11 12 11 10 10 8 7 9 9 9 8 8 8 8 8
2 2 4 6 5 2 2 2 5 3 3 10 11 6 7 5 4 3 3 0 2 8 6 4 9 8 4 4 2 3 4 5 6 8 9 11 12 15 15 17 17 15 14 16 16 15 14 14 11 11 11 11 12 14 12 12 12 13 14 14 13 12 11 11 11 11 10 9 9 8 10 12 12 11 11 11 10 8 9 8 7 7 8 7 8 9 8
3 7 11 4 6 5 2 2 3 5 8 10 12 14 8 4 2 4 2 1 2 2 5 7 6 4 3 4 1 4 5 4 2 5 11 13 14 14 15 14 17 15 16 15 16 16 15 14 11 9 11 11 12 10 11 12 13 13 13 13 13 13 13 13 13 13 12 10 10 9 12 10 11 11 12 11 9 9 10 9 8 9 9 10 10 8 8
5 3 7 6 3 4 2 1 3 7 8 9 6 7 12 18 11 4 2 2 4 4 4 5 4 5 4 0 3 3 7 5 3 8 12 13 1 14 14 15 12 13 14 15 15 16 14 15 12 11 10 9 10 9 11 11 12 13 12 13 11 10 13 13 12 12 12 10 9 9 11 10 9 9 9 9 9 10 10 10 10 9 10 10 8 8 8
7 3 4 5 3 3 2 2 2 3 5 1 5 1 3 7 16 7 6 3 6 5 5 7 8 6 2 1 5 1 5 3 5 7 6 5 13 8 15 18 14 15 14 14 14 13 12 12 12 12 11 11 12 11 11 11 11 10 11 12 11 10 11 10 10 10 9 14 14 10 11 11 10 9 9 9 10 11 10 10 10 10 9 9 9 8 8
8 6 10 14 7 12 11 11 11 8 10 9 11 6 4 7 10 11 9 9 9 7 8 7 9 9 6 5 5 4 6 8 8 6 3 9 12 6 15 12 8 11 12 15 15 12 11 9 8 8 10 11 13 11 10 10 10 12 11 13 12 12 11 10 10 9 9 12 11 11 10 9 9 10 11 10 10 8 8 8 8 9 9 9 8 8 8
4 3 7 11 4 4 8 10 8 6 8 9 10 12 3 7 11 13 14 11 8 7 8 7 9 8 9 9 8 4 5 10 13 10 9 12 8 8 12 10 12 12 11 12 14 11 8 7 8 8 8 10 10 12 12 12 12 11 12 11 11 13 10 9 10 10 10 10 10 11 10 10 10 8 8 10 9 8 8 9 12 11 8 7 8 7 7
4 8 4 3 7 8 6 5 9 2 5 6 6 3 8 9 6 7 12 13 10 9 9 8 10 9 9 10 10 9 6 8 10 9 9 4 2 8 9 12 11 8 4 10 17 16 13 9 6 6 7 9 9 11 10 12 12 12 12 9 8 10 11 9 11 11 10 9 10 10 10 10 10 10 9 5 4 11 10 10 12 13 13 9 11 8 7
4 9 3 3 3 2 3 4 3 3 2 3 6 7 7 6 9 10 7 8 12 11 9 9 10 10 10 10 8 8 8 9 12 12 11 10 7 6 7 10 10 9 9 9 11 12 10 11 9 6 5 7 11 12 9 8 12 14 13 10 10 9 9 8 11 11 11 11 11 11 10 10 10 10 10 9 4 8 4 16 13 14 13 12 12 10 7
6 4 2 3 1 3 2 4 1 4 5 4 3 7 7 7 8 7 8 7 7 10 10 11 11 9 9 10 9 9 8 8 7 7 9 8 9 8 7 6 9 9 10 9 9 9 11 11 10 9 7 8 11 11 12 11 12 14 13 11 10 10 9 10 10 10 10 10 10 10 11 10 9 9 10 10 9 5 5 6 12 12 11 12 13 11 8
4 2 3 4 3 2 5 6 2 2 4 6 5 6 6 5 6 2 6 6 7 7 8 8 8 10 10 9 9 9 9 8 5 6 7 7 8 8 7 8 8 9 9 8 8 7 6 6 8 6 7 8 8 7 8 9 9 11 12 11 10 10 10 11 11 10 9 10 10 9 9 9 9 10 9 9 9 9 8 6 4 4 4 3 11 12 7
5 4 6 2 2 2 1 1 1 2 3 4 3 3 5 7 8 7 4 3 4 5 5 6 8 7 7 9 10 8 7 7 8 8 7 7 6 6 6 7 8 8 9 8 7 7 7 7 6 7 7 7 7 8 11 13 11 10 8 7 6 12 16 11 9 10 10 10 10 9 10 9 8 8 7 8 9 10 9 9 9 9 7 3 2 7 7
5 7 3 3 0 2 2 3 2 1 1 2 1 3 3 5 7 6 4 4 4 6 4 4 4 4 5 6 5 5 2 6 9 8 7 6 5 5 5 6 7 6 7 6 6 6 4 3 4 6 6 6 6 6 9 10 12 10 10 9 9 9 9 9 7 7 8 9 9 10 10 9 9 8 8 9 9 9 8 8 8 8 7 6 5 3 11
3 11 7 4 2 2 1 1 3 1 0 1 1 2 2 4 3 5 1 6 5 3 5 6 5 5 4 3 4 4 5 5 7 8 8 7 5 5 6 6 5 5 5 6 8 6 6 5 5 6 6 5 6 7 5 4 5 8 8 8 10 10 11 9 9 8 7 8 8 8 8 9 9 9 9 9 9 9 9 9 9 8 7 7 6 4 4
8 10 8 4 1 1 2 2 3 1 1 1 3 4 4 2 3 4 3 4 4 5 6 6 5 5 4 4 4 5 5 5 4 6 8 6 6 5 4 5 3 5 4 5 6 6 7 6 6 7 6 6 5 6 8 9 8 9 7 5 6 8 8 9 10 10 10 9 7 9 9 8 8 9 9 9 9 9 9 9 9 9 8 9 9 9 8
9 6 6 6 6 4 4 5 5 4 4 3 3 4 2 3 2 1 4 4 3 4 5 4 3 2 3 5 5 4 3 2 2 4 7 6 5 5 4 4 4 4 3 5 6 6 6 7 6 6 8 8 9 10 11 11 10 10 9 7 7 8 9 9 8 9 9 9 9 8 7 7 8 8 8 8 8 8 9 9 10 9 9 8 9 9 9
9 12 3 4 4 5 4 4 4 2 4 5 4 1 6 7 7 6 5 6 5 4 5 3 3 5 5 3 1 2 3 3 2 4 5 6 6 4 4 3 3 3 4 3 4 4 4 5 6 7 10 10 10 9 9 8 8 8 7 7 9 9 9 10 7 8 7 6 7 8 8 7 7 8 8 8 8 8 8 8 9 9 8 7 8 9 10
5 7 3 6 5 5 4 4 4 4 6 7 4 2 4 3 4 5 5 5 5 6 5 4 2 2 2 1 0 2 3 3 2 2 5 6 5 6 5 4 4 5 3 4 4 4 3 6 7 7 9 9 9 10 8 8 9 8 8 8 8 9 9 9 9 8 8 8 7 7 7 8 7 8 9 9 8 9 9 8 8 10 9 8 8 8 10
6 10 8 5 4 3 5 2 7 7 8 6 5 4 2 1 6 8 7 6 5 5 5 3 1 1 4 1 1 1 2 1 1 2 2 3 4 4 4 4 4 4 5 6 5 3 3 6 9 7 8 9 9 9 9 9 8 7 8 9 9 8 7 7 9 8 8 8 8 7 8 7 8 8 8 9 9 9 8 7 5 5 6 8 8 8 12
5 3 2 5 5 3 5 7 4 4 5 8 4 3 4 5 6 6 4 6 6 5 4 3 3 3 3 3 5 4 6 5 2 3 3 2 3 3 2 3 2 5 6 6 6 5 4 3 8 9 9 8 7 6 7 8 7 7 9 9 10 9 9 8 8 8 8 8 8 8 8 8 7 5 4 7 6 5 4 5 6 7 7 7 6 3 8
1 2 4 3 2 3 2 2 1 1 3 4 6 7 5 5 4 4 5 5 4 5 4 6 6 6 5 5 5 5 4 4 5 4 3 3 3 2 2 2 4 4 6 5 3 2 5 6 10 9 6 8 10 10 10 9 8 7 10 10 9 9 8 8 7 7 7 7 8 7 7 8 7 6 5 6 7 7 7 6 6 6 5 3 3 4 5
2 2 3 2 2 3 2 1 2 3 2 3 2 2 2 3 3 3 1 5 5 4 4 4 4 6 7 7 7 7 6 6 5 4 3 3 2 2 2 3 3 3 3 3 3 1 3 7 11 9 5 7 8 9 9 9 6 8 10 9 9 9 8 8 7 7 8 7 7 7 7 6 6 5 5 4 5 7 7 6 7 5 5 5 6 5 9
2 2 2 2 2 2 2 3 3 2 1 2 2 3 4 3 1 2 4 4 5 5 3 2 2 3 5 6 7 6 6 6 6 5 5 5 4 2 1 3 2 2 2 2 5 5 4 4 5 4 1 3 7 6 9 10 8 5 9 8 9 8 8 8 7 7 8 8 7 8 8 8 9 9 9 8 8 7 7 7 6 7 7 7 6 8 9
4 4 3 1 3 4 3 2 1 1 2 3 2 2 4 1 2 1 1 3 4 4 4 3 3 3 5 3 3 6 6 6 6 5 6 5 4 5 7 6 5 5 5 3 5 6 5 3 1 2 1 2 2 5 8 11 9 4 8 8 8 8 8 8 8 7 7 8 8 8 9 8 8 8 7 8 8 7 6 6 6 7 6 5 5 5 7
7 3 3 1 2 0 1 1 1 2 2 1 1 1 2 2 2 2 3 3 3 4 6 9 9 8 4 5 8 7 6 5 5 6 6 6 4 3 5 7 6 6 6 5 5 5 6 7 3 2 1 4 5 4 4 9 9 6 3 7 7 7 7 7 7 7 7 7 7 6 7 8 8 8 8 8 7 6 5 6 6 5 6 6 6 6 6
13 9 2 2 0 0 1 1 1 1 2 1 1 2 2 2 2 3 5 1 2 3 5 6 8 7 8 7 5 5 4 3 3 4 4 5 5 4 2 7 7 7 7 6 5 5 5 2 1 3 2 3 3 5 3 6 6 4 4 6 7 7 8 8 7 8 8 8 8 8 8 8 8 8 6 6 7 7 4 3 5 4 4 5 5 5 6
9 9 6 4 1 3 4 3 2 2 3 2 3 2 2 1 2 2 5 3 4 5 3 5 3 4 4 4 4 3 4 3 3 2 0 1 3 4 7 5 4 4 4 6 6 4 3 3 2 4 2 5 5 6 8 4 2 3 3 4 5 5 7 8 8 7 8 8 7 8 6 6 7 7 4 3 6 6 7 4 4 5 4 5 6 5 5
15 17 9 3 2 0 1 2 3 2 2 3 3 3 2 2 2 5 4 3 2 2 3 2 3 2 3 3 4 4 2 4 3 3 3 3 4 5 5 6 4 2 2 3 2 3 4 4 3 3 2 3 7 9 8 4 5 4 4 2 6 6 3 3 2 3 5 6 6 4 2 3 3 5 4 4 3 3 6 6 6 7 7 6 5 5 5
12 12 14 10 5 2 2 2 2 1 4 5 4 4 3 3 3 3 2 3 6 6 6 7 7 6 6 7 6 5 5 4 3 2 2 4 6 9 7 5 4 3 6 3 4 2 3 5 6 8 11 9 10 10 6 3 2 5 2 5 3 1 2 2 3 3 4 4 4 4 4 3 3 4 4 4 4 3 2 4 5 5 5 5 5 5 7
10 8 9 17 15 3 0 2 1 7 3 1 1 3 5 6 4 2 2 7 6 5 5 5 5 5 5 5 3 4 2 3 3 3 4 6 4 6 5 4 5 3 6 7 4 7 7 5 8 12 11 10 6 3 3 4 4 7 5 2 2 3 4 3 4 3 5 5 5 5 4 5 5 5 4 5 6 6 6 4 4 5 7 7 7 7 5
10 9 11 11 15 12 3 2 2 1 4 7 3 3 1 2 3 3 3 6 6 6 6 3 3 5 4 4 3 4 3 2 0 5 6 5 4 4 5 5 5 5 8 8 7 7 5 6 8 10 10 9 7 4 4 5 5 5 7 7 6 5 5 5 7 7 7 8 8 6 6 6 5 5 5 4 6 7 6 7 6 6 5 4 3 3 3
12 11 10 9 9 11 4 3 4 6 8 6 5 4 5 5 3 2 4 5 4 4 4 2 3 2 3 5 4 3 3 4 5 6 7 7 6 5 6 7 7 9 8 5 5 4 4 3 4 4 6 9 7 5 6 7 6 6 6 5 6 6 4 4 4 4 3 2 3 6 6 7 6 6 7 7 7 7 6 6 6 4 3 3 3 5 4
12 12 12 12 13 14 13 11 11 9 7 6 6 4 6 2 6 3 2 1 1 4 4 3 3 4 3 3 4 4 4 3 3 5 6 5 4 4 3 4 4 8 9 8 7 5 7 7 6 4 2 1 2 3 5 2 6 4 2 2 2 3 2 3 3 4 4 5 5 5 5 5 5 5 6 8 7 8 6 6 5 4 5 5 5 5 5
12 11 11 12 14 15 13 12 11 11 10 11 11 10 9 7 11 12 10 9 6 4 4 5 4 4 3 3 2 3 4 3 3 4 4 4 5 5 4 5 5 3 2 2 4 3 4 6 5 3 1 1 3 4 4 1 3 2 2 2 1 1 1 1 2 2 3 4 5 4 3 2 2 2 1 3 2 3 6 6 5 4 4 6 6 6 6
12 11 12 12 12 13 13 11 11 10 10 11 11 11 9 9 10 10 10 10 10 8 4 4 6 7 8 7 4 3 4 5 7 7 4 6 6 5 5 4 4 2 3 3 5 4 2 1 0 0 1 3 4 4 2 3 3 2 3 2 2 3 5 7 5 5 4 2 3 3 3 1 0 0 0 1 3 6 5 5 6 6 7 6 7 7 7
11 10 11 11 11 11 12 12 11 11 11 11 11 11 10 9 9 9 10 12 9 10 10 8 9 10 10 10 11 11 11 9 6 4 4 5 5 5 4 5 3 3 3 5 5 5 5 4 3 3 2 4 4 2 4 4 3 2 2 2 2 2 2 2 1 2 2 3 3 4 3 1 1 0 0 0 2 4 4 6 5 5 4 4 3 3 3
11 10 9 8 9 10 11 12 12 11 12 12 11 11 11 9 9 10 11 12 11 10 10 9 10 10 10 11 11 10 10 10 11 12 10 10 8 1 4 3 2 3 3 2 7 5 5 6 5 4 3 3 3 1 3 1 2 1 2 1 2 2 3 2 1 1 0 1 1 1 3 2 1 0 0 0 1 2 1 3 5 4 3 2 2 2 3
Wind_Direction
254 275 302 208 197 215 203 208 213 218 227 228 230 249 288 269 249 246 222 249 160 151 270 237 243 205 200 172 163 160 155 143 121 91 86 118 148 148 158 161 167 174 178 177 174 174 172 169 170 172 176 177 171 172 169 168 161 160 155 150 152 151 150 151 151 151 148 147 150 146 146 147 149 148 148 161 160 160 161 151 158 168 164 158 160 159 141
249 255 245 273 215 210 215 208 214 222 226 229 238 245 248 248 234 243 263 273 210 165 237 308 186 58 60 63 98 137 116 148 155 171 163 154 153 161 157 157 166 174 177 173 171 172 172 171 171 175 178 180 169 163 161 163 160 159 157 155 152 152 157 159 153 149 145 147 147 148 148 150 151 149 154 160 159 157 157 156 163 164 163 157 161 150 136
263 244 248 241 228 207 218 219 218 220 223 225 222 224 232 236 235 239 248 282 341 54 57 79 8 60 4 144 124 123 146 152 166 180 177 171 175 184 173 167 174 177 174 171 170 175 179 174 173 175 178 175 168 167 165 166 161 159 158 157 151 152 158 152 147 145 145 148 147 146 147 148 152 155 161 160 158 158 154 162 158 138 135 141 137 126 118
257 287 276 242 240 221 217 223 221 215 219 221 222 220 208 226 229 237 249 239 267 250 146 129 58 90 187 314 211 156 138 170 156 209 174 181 192 188 180 173 176 180 177 178 176 179 177 175 175 176 175 170 167 170 167 163 160 157 157 155 150 153 155 150 147 148 150 150 148 148 151 153 156 162 167 159 155 158 151 135 114 133 131 104 120 128 126
249 267 256 251 271 251 220 219 219 217 220 229 231 225 223 238 251 251 241 230 211 245 118 157 124 229 214 158 244 240 206 193 171 189 195 188 179 173 193 184 178 172 171 185 180 170 161 168 180 178 168 168 168 161 155 154 151 155 151 148 147 148 149 148 150 149 152 154 152 155 158 158 160 163 173 162 154 148 139 133 135 145 135 130 125 136 134
295 250 309 12 325 232 220 202 208 212 218 219 226 212 208 219 228 243 249 240 210 249 191 191 166 187 194 206 214 239 254 187 166 178 195 195 189 186 187 179 150 164 179 181 165 161 161 164 171 173 165 161 151 149 146 147 153 152 150 148 146 146 148 150 148 152 156 159 156 158 160 161 163 164 163 158 151 141 147 147 157 155 140 144 140 148 158
281 8 1 342 270 260 319 295 235 221 221 221 226 232 218 212 209 229 246 242 235 242 247 261 234 211 272 274 252 216 207 61 62 101 197 213 165 182 191 173 167 177 184 177 146 153 162 166 169 164 167 160 152 151 152 151 151 147 148 147 146 148 151 155 156 160 165 160 155 157 160 160 157 160 153 149 149 148 154 158 160 159 150 149 160 166 182
196 180 173 234 268 315 289 268 272 253 233 222 215 223 234 233 227 214 236 257 261 233 250 246 245 253 251 273 269 269 164 170 144 198 211 223 223 181 181 172 162 174 177 161 156 158 154 160 168 165 157 141 140 149 152 152 153 150 152 155 156 155 157 159 162 164 163 157 157 157 158 158 155 155 149 149 149 147 146 148 148 148 158 156 167 177 166
265 29 268 276 307 288 250 240 247 245 234 218 204 207 209 216 213 214 218 223 232 248 242 234 252 272 270 269 275 202 126 182 192 199 212 214 237 216 164 142 146 132 155 156 150 146 154 164 163 158 149 143 144 147 155 156 154 158 161 163 161 160 162 163 166 167 164 160 161 160 161 160 163 158 151 154 151 144 145 149 149 153 158 161 158 172 176
343 38 322 285 257 245 260 352 341 318 300 1 325 248 238 202 220 217 213 211 210 226 249 261 252 252 265 255 256 199 211 244 244 221 210 211 238 178 134 133 133 166 163 150 146 149 155 164 157 147 148 143 140 145 151 155 161 167 169 165 158 163 165 166 167 166 164 167 163 167 165 169 169 160 152 149 143 143 145 151 156 161 153 162 167 174 184
328 6 283 272 294 314 267 297 324 316 311 304 299 229 245 193 212 235 230 219 212 207 221 233 234 233 238 246 252 123 328 293 247 225 193 229 217 138 144 151 166 152 151 147 146 153 157 162 155 142 146 144 145 154 156 162 169 170 175 173 162 169 170 166 165 161 161 167 169 168 158 166 162 155 154 152 148 148 145 154 160 164 167 167 173 181 188
269 289 282 294 245 273 288 320 320 316 300 287 250 215 216 39 312 226 210 222 216 213 220 219 217 223 236 249 237 44 41 302 113 86 130 220 87 133 154 163 143 139 137 141 151 154 158 154 142 144 148 151 154 159 164 166 172 173 177 175 168 162 155 151 161 163 157 152 155 154 160 159 154 151 145 146 154 153 154 165 163 168 169 174 173 177 172
272 252 287 280 262 270 314 338 294 299 282 291 225 214 57 331 327 344 322 235 215 217 212 204 231 212 240 251 134 131 140 235 159 169 170 130 119 141 172 138 113 131 145 151 151 149 152 150 148 148 151 153 160 162 166 172 175 174 172 170 168 162 156 154 163 149 148 161 159 158 157 153 150 145 149 152 156 155 157 159 161 168 168 165 144 135 147
268 321 275 265 270 265 309 304 298 272 242 197 210 41 269 290 312 328 330 359 324 218 210 197 217 134 79 118 102 124 180 161 214 175 184 165 158 166 155 115 127 130 133 141 148 148 147 153 154 155 157 158 163 167 170 180 179 171 170 167 161 160 159 161 151 149 155 154 151 147 143 143 144 147 144 147 153 153 157 150 153 140 124 126 134 125 127
264 231 262 317 302 82 347 339 317 312 350 63 314 289 300 296 331 316 355 12 348 322 217 204 180 120 106 89 119 179 185 186 183 186 171 148 160 153 130 133 133 139 140 149 151 148 153 157 161 158 158 158 167 169 175 177 175 167 148 146 142 141 141 145 145 151 152 152 153 148 146 144 143 144 143 143 142 140 149 143 135 130 119 107 102 117 167
265 288 285 289 324 20 107 74 220 301 326 330 299 291 299 333 341 358 306 25 347 308 273 197 114 119 122 123 91 199 219 196 192 174 154 153 162 134 144 137 132 138 144 155 157 157 158 162 163 161 164 168 170 171 176 169 172 163 147 150 148 147 147 134 123 124 122 133 133 141 140 140 141 141 143 143 146 155 141 137 137 130 130 138 142 162 193
264 183 241 232 223 38 90 117 240 229 244 287 311 335 355 350 11 349 332 353 301 298 314 83 109 109 91 78 26 317 212 186 196 161 151 160 145 143 148 149 138 152 152 158 158 159 162 162 164 163 164 169 162 170 162 150 152 151 151 151 146 135 136 136 130 131 127 130 129 121 139 142 142 144 145 151 153 149 139 134 126 132 140 158 181 188 182
230 262 263 273 129 127 223 195 320 339 19 332 345 336 336 0 348 349 309 76 243 18 30 78 82 103 100 109 177 141 271 195 196 159 161 163 153 151 146 144 151 159 151 149 159 156 161 164 168 175 172 168 159 157 145 141 140 141 142 142 144 153 151 143 143 142 134 133 131 132 141 146 147 152 153 159 151 144 147 144 149 159 166 185 195 184 175
207 261 249 194 182 144 170 105 24 36 36 351 326 339 341 340 343 296 283 34 62 32 83 105 98 75 72 94 169 212 199 174 78 36 23 359 320 153 150 142 157 144 150 159 155 154 161 166 168 170 174 168 163 150 147 150 146 150 148 148 147 150 149 149 139 140 140 142 136 138 144 145 150 154 158 156 152 159 161 161 168 176 181 182 181 179 176
258 208 224 279 191 128 93 47 357 49 84 313 306 13 42 302 301 337 14 47 76 77 77 96 103 84 356 187 33 313 111 140 88 78 111 160 274 192 143 153 165 140 152 155 152 154 160 167 169 169 165 153 156 144 150 155 150 134 129 138 134 135 125 120 130 139 138 140 142 143 152 154 156 160 163 162 167 173 174 169 174 178 170 177 183 182 179
250 299 21 9 15 37 24 18 7 356 28 16 333 352 323 288 347 339 37 30 33 40 80 98 107 114 136 107 143 167 134 100 92 100 194 220 236 189 135 144 116 129 146 148 148 153 150 157 155 161 164 159 167 157 158 157 159 143 142 142 136 131 133 134 136 142 141 152 155 154 154 159 165 167 168 170 172 171 178 179 179 172 174 178 187 182 181
25 42 322 11 42 347 344 18 339 344 48 34 343 303 313 351 2 348 346 6 47 51 59 66 100 127 128 136 125 133 131 148 134 149 190 228 206 138 130 105 101 101 105 125 131 129 134 150 157 162 147 149 168 168 164 167 166 144 144 145 148 151 145 145 144 146 149 154 155 156 160 165 165 165 176 169 171 171 180 177 158 162 170 180 179 183 180
306 331 354 39 145 189 222 212 251 213 99 138 187 257 350 348 346 360 9 344 6 9 45 59 83 85 84 94 114 128 118 99 114 157 190 221 223 126 122 106 103 100 124 147 138 140 141 137 142 150 160 166 151 156 168 169 154 135 144 151 155 163 158 163 157 152 152 154 157 160 164 164 166 162 167 152 138 186 180 161 162 166 175 182 182 179 167
249 262 346 180 202 143 222 258 252 7 352 46 58 50 44 28 20 8 19 7 7 6 7 24 48 70 87 97 96 91 96 113 133 158 178 179 142 99 117 109 109 119 136 140 130 131 134 134 139 146 179 141 136 148 155 176 149 145 155 166 166 159 162 151 145 151 156 158 161 163 164 169 167 162 167 161 137 27 152 163 160 159 174 181 169 149 115
294 301 258 305 251 201 148 264 281 36 24 40 38 44 42 35 42 37 26 26 20 21 15 9 18 31 61 71 75 80 81 74 60 58 72 72 82 90 81 87 95 112 123 128 130 137 144 144 146 145 161 149 157 168 167 168 153 152 159 165 165 161 152 141 149 152 158 157 165 164 163 163 163 164 166 169 158 134 35 121 147 161 169 171 177 157 128
290 300 287 296 280 219 166 215 202 55 37 36 27 16 12 28 357 14 64 33 8 24 35 14 12 19 28 51 67 72 72 73 46 55 70 79 90 87 80 71 85 98 109 119 127 126 118 131 134 136 148 158 161 164 135 131 150 152 161 175 176 146 142 149 157 160 160 161 162 161 162 165 166 167 170 163 154 146 145 141 86 47 23 143 191 152 115
263 288 311 271 224 157 74 352 51 64 76 75 40 26 32 20 11 8 346 66 49 20 14 13 36 20 33 40 45 54 78 84 68 61 64 61 59 75 84 95 101 112 122 127 125 118 127 144 151 149 154 157 162 155 145 148 153 154 159 159 145 118 139 152 160 161 159 158 159 159 161 166 162 161 149 150 155 162 165 158 163 170 174 168 215 162 141
318 301 288 296 69 96 65 66 344 314 143 92 58 5 4 58 40 2 311 55 43 17 8 51 31 44 47 41 43 62 67 80 78 86 83 75 58 56 80 97 112 112 107 104 97 82 104 151 154 159 158 142 127 148 156 150 147 151 145 152 132 126 135 137 149 154 157 161 162 161 160 162 160 157 155 160 162 170 165 167 172 175 176 180 173 145 137
285 279 285 288 326 26 342 284 254 261 333 161 276 270 332 1 130 194 244 41 55 64 43 31 7 26 27 61 65 45 44 70 92 84 88 82 75 82 66 69 88 86 98 115 102 108 109 119 128 123 117 118 110 87 85 106 135 140 134 121 131 148 154 155 151 153 157 162 165 162 156 155 155 163 170 170 167 168 171 169 174 178 180 166 160 125 114
170 246 281 295 79 291 268 266 266 282 256 274 317 298 242 209 20 349 49 71 41 37 62 47 13 10 20 51 40 42 45 33 51 91 85 83 81 86 104 85 82 100 112 111 115 130 143 148 146 132 132 124 111 93 90 72 57 59 69 86 120 140 150 155 152 151 156 165 155 144 157 162 163 172 174 172 168 162 163 168 169 174 184 181 177 178 170
161 226 259 331 342 344 323 332 345 338 339 21 5 313 72 140 200 116 42 90 122 99 53 55 36 8 30 39 28 52 61 88 53 73 98 95 97 93 104 123 143 146 156 163 152 162 156 152 152 139 118 97 99 104 111 125 138 139 139 145 145 146 150 153 148 148 151 152 144 148 150 156 159 158 160 157 152 156 165 171 176 184 188 183 178 184 180
143 156 166 313 305 331 327 351 22 32 349 336 295 267 45 33 45 45 36 18 20 35 93 69 36 27 43 53 19 94 82 81 99 90 99 118 115 128 122 133 119 126 172 157 140 162 167 141 112 123 126 129 133 138 143 140 127 133 146 148 140 140 146 150 139 135 132 135 146 149 154 154 157 162 162 164 170 173 184 184 176 179 183 188 188 185 178
24 34 64 191 239 257 321 341 318 333 323 306 256 90 69 59 58 66 54 23 25 33 65 82 105 170 87 276 133 93 101 85 101 136 133 131 134 140 159 163 163 173 152 145 149 167 173 142 136 140 139 145 151 150 149 146 148 151 150 142 143 143 151 158 150 143 138 145 158 166 168 172 168 172 177 177 175 182 193 203 180 172 179 190 199 192 178
120 154 205 120 106 180 196 13 9 343 327 321 24 329 303 62 62 44 24 18 32 24 29 3 27 86 116 192 129 250 112 194 130 98 95 116 123 133 139 144 173 157 155 137 147 177 186 152 137 149 150 160 165 161 161 168 170 169 151 144 138 138 151 153 144 146 145 158 162 165 168 183 182 184 181 182 188 192 195 192 198 192 186 192 199 209 173
72 64 354 103 136 89 127 150 191 273 317 337 318 266 69 52 53 60 24 8 14 0 13 2 21 41 63 58 60 56 52 53 71 93 95 87 97 112 121 130 135 119 145 158 166 174 180 149 130 142 147 153 140 143 166 176 189 169 141 126 131 145 157 154 158 155 158 164 168 172 170 184 192 193 178 167 172 184 186 202 204 202 213 196 181 179 147
177 197 123 83 60 101 59 50 121 187 327 331 341 4 18 57 41 44 25 26 8 7 29 34 37 54 62 73 77 70 77 73 58 34 60 103 117 133 161 170 140 146 146 160 161 175 190 167 144 152 155 156 162 178 178 189 190 158 126 129 137 144 150 155 164 155 161 168 178 179 178 178 178 182 193 182 181 199 206 204 212 213 222 187 161 186 136
248 57 23 18 26 5 351 44 289 301 296 292 5 12 43 57 25 43 359 30 20 15 32 71 76 71 69 65 62 46 44 50 52 60 54 69 114 209 201 201 169 152 166 161 109 351 64 91 136 154 180 166 173 173 173 186 188 149 125 134 138 146 149 162 169 166 170 173 170 171 167 149 165 198 214 209 201 192 197 197 192 199 191 182 193 145 139
240 223 191 242 307 329 305 296 319 290 267 301 6 52 52 70 42 3 25 29 36 32 21 49 82 121 123 115 79 68 53 32 36 46 44 40 19 299 189 61 55 155 196 141 110 93 76 67 102 144 233 154 162 162 134 99 33 107 126 139 139 145 152 164 172 175 172 179 173 172 178 179 180 192 197 202 212 208 195 198 177 180 202 190 178 146 156
300 309 296 274 293 281 290 261 233 9 357 312 326 48 74 27 109 108 31 51 38 15 17 21 9 25 36 2 84 85 62 40 12 18 29 23 9 26 70 74 70 52 57 51 120 102 119 116 108 98 50 283 125 89 111 89 63 77 137 140 142 151 159 168 175 177 178 173 178 177 179 183 186 192 189 196 215 215 202 187 187 184 185 165 170 181 167
306 296 291 290 266 66 222 326 12 344 324 17 234 184 138 183 204 231 104 80 51 321 18 29 19 7 352 78 50 41 35 41 11 8 11 359 345 349 110 100 87 71 48 43 73 95 97 93 100 90 28 27 70 95 92 96 89 53 75 132 131 141 159 163 176 174 181 176 180 173 179 182 190 193 206 195 191 203 201 184 193 174 180 188 182 183 182
322 311 329 267 287 210 251 231 339 58 347 359 10 94 171 247 2 46 84 86 83 17 41 29 16 6 2 8 55 54 33 14 359 321 13 338 328 308 287 102 70 59 35 42 74 99 98 108 205 159 189 95 104 114 117 109 110 124 177 162 159 161 161 170 183 183 187 188 178 184 195 185 184 193 197 184 185 198 181 159 177 171 165 171 175 172 171
272 267 291 310 357 36 40 49 54 47 54 18 50 56 99 211 252 81 111 83 50 4 20 75 52 27 340 334 303 329 307 322 349 339 94 2 2 358 72 81 65 85 90 105 105 119 150 189 157 44 345 162 145 132 133 108 159 186 193 162 191 179 175 170 180 183 181 187 181 182 186 190 183 194 169 168 178 176 141 181 182 179 192 175 168 171 178
5 349 329 346 3 299 291 47 64 52 100 79 72 57 37 37 45 78 63 27 342 56 332 74 63 327 303 348 359 335 329 54 39 347 319 83 49 11 52 99 78 83 325 263 183 173 172 187 111 103 353 141 137 140 131 149 200 213 218 103 61 38 40 92 104 94 85 76 71 92 196 196 177 179 154 173 148 146 165 162 161 177 173 179 174 190 205
17 18 332 306 294 40 86 82 72 74 23 65 71 88 64 73 110 131 104 47 33 23 30 32 32 30 24 16 5 357 20 2 14 345 352 98 88 62 64 78 83 58 358 357 329 298 180 110 91 88 67 83 116 124 122 133 219 263 267 95 88 88 77 90 88 105 120 129 145 181 207 199 199 193 169 172 172 169 159 158 170 170 179 190 195 204 213
24 21 19 345 314 286 210 113 179 82 92 252 45 65 115 112 90 39 59 76 49 27 28 33 46 42 16 12 3 357 6 354 3 353 48 53 60 58 48 73 77 61 53 14 32 52 55 56 105 113 121 122 106 69 59 63 54 71 48 330 149 182 199 188 177 170 162 187 189 175 199 213 207 205 186 182 188 193 198 201 192 190 190 199 205 207 191
35 42 38 8 342 320 316 13 63 237 133 75 62 99 62 25 48 62 54 69 67 58 57 53 8 24 6 337 353 347 337 322 46 68 61 61 61 69 48 44 45 42 32 29 71 58 61 76 109 122 135 143 143 153 142 150 164 171 192 206 181 173 199 197 180 189 187 188 189 181 182 199 194 195 198 193 189 199 198 198 206 208 195 183 178 165 154
13 28 36 28 345 298 24 34 50 38 46 66 54 35 41 53 71 42 65 99 108 107 104 80 24 33 19 22 9 0 0 22 35 80 91 88 85 90 93 76 57 45 56 52 60 72 102 88 80 123 151 165 178 187 195 184 183 203 199 201 163 178 193 200 188 170 172 204 176 174 180 183 193 191 187 204 204 201 202 184 186 184 169 170 159 158 171
14 18 18 13 8 10 23 30 34 22 28 18 5 29 20 90 105 98 68 359 141 167 171 115 88 67 50 48 5 39 60 24 16 55 76 88 101 109 99 77 93 110 102 95 87 76 77 89 85 76 61 311 302 282 278 209 168 211 196 150 132 155 179 201 172 153 163 183 186 194 185 181 193 199 186 196 202 193 180 162 167 168 187 170 171 171 187
14 23 14 9 19 19 26 31 33 30 21 14 12 7 351 26 50 33 15 353 357 21 67 93 98 93 69 80 5 40 82 75 37 71 86 109 101 85 90 97 91 110 279 101 98 98 56 62 58 45 44 304 261 256 254 173 85 48 35 71 67 74 87 37 54 121 149 154 159 146 149 162 193 225 188 199 191 142 135 146 170 175 180 169 180 190 194
15 20 27 21 19 22 20 21 27 21 17 12 13 358 358 43 42 29 16 7 10 9 18 33 24 35 32 15 4 54 29 30 33 20 30 66 93 121 114 106 120 193 272 114 112 108 98 116 26 278 262 235 248 270 289 76 86 43 17 59 55 39 71 95 90 65 41 59 124 124 108 94 119 64 279 242 137 149 155 163 176 192 192 195 193 198 201
9 21 27 25 27 26 26 26 22 19 16 10 7 1 9 43 48 45 31 7 13 25 11 24 39 25 20 20 15 14 11 3 30 9 15 63 73 74 83 116 142 195 154 144 138 145 152 176 168 165 225 263 280 315 37 41 39 74 72 356 4 87 73 23 39 109 93 48 61 95 99 95 59 101 142 288 102 125 149 159 164 173 183 205 200 190 189
21 21 21 27 29 31 33 27 22 20 18 12 7 8 8 19 45 41 34 20 20 21 8 14 39 34 27 19 14 11 5 15 19 3 5 12 4 31 134 141 153 138 243 201 149 160 151 140 132 176 257 264 277 224 130 161 107 71 83 101 34 31 84 82 357 332 151 125 68 134 136 132 109 198 171 131 125 177 195 171 176 176 159 189 219 219 232